Weather History for KDVN - November, 2011

Change the Weather History Date:

Saturday, November 12, 2011

  Actual Average Record
Temperature  
Mean Temperature 47 °F 41 °F  
Max Temperature 61 °F 50 °F 67 °F (1964)
Min Temperature 33 °F 31 °F 9 °F (1996)
Degree Days  
Heating Degree Days 18 24  
Month to date heating degree days 242 260  
Since 1 July heating degree days 805 820  
Cooling Degree Days 0 0  
Month to date cooling degree days 0 0  
Year to date cooling degree days 1020 786  
Moisture  
Dew Point 33 °F    
Average Humidity 56    
Maximum Humidity 76    
Minimum Humidity 36    
Precipitation  
Precipitation 0.00 in 0.08 in 1.13 in (1982)
Month to date precipitation 3.22 1.18  
Year to date precipitation 30.18 33.03  
Snow  
Snow 0.00 in - - ()
Month to date snowfall 0.5  
Since 1 July snowfall 0.5  
Since 1 September snowfall 0.5  
Snow Depth 0.00 in    
Sea Level Pressure  
Sea Level Pressure 29.66 in    
Wind  
Wind Speed 14 mph (South)    
Max Wind Speed 28 mph    
Max Gust Speed 35 mph    
Visibility 10 miles    
Events      
T = Trace of Precipitation, MM = Missing Value Source: NWS Daily Summary

Daily Weather History Graph

Daily Weather History Graph

Search for Another Location

Airport or City:

Trip Planner

Search our weather history database for the weather conditions in past years. The results will help you decide how hot, cold, wet, or windy it might be!

Date:

Astronomy

Nov. 12, 2011 Rise Set
Actual Time 6:47 AM CST 4:45 PM CST
Civil Twilight 6:17 AM CST 5:14 PM CST
Nautical Twilight 5:44 AM CST 5:48 PM CST
Astronomical Twilight 5:11 AM CST 6:20 PM CST
Moon 5:59 PM CST (11/12) 8:31 AM CST (11/12)
Length of Visible Light 10h 56m
Length of Day
9h 57m
Full, 97% of the Moon is Illuminated
Nov 12
Full
Nov 18
Last Quarter
Nov 25
New
Dec 2
First Quarter
Dec 10
Full

Hourly Weather History & Observations

Time (CST) Temp. Windchill Dew Point Humidity Pressure Visibility Wind Dir Wind Speed Gust Speed Precip Events Conditions
12:52 AM 37.9 °F - 30.0 °F 73% 29.75 in 10.0 mi Calm Calm - N/A   Clear
1:52 AM 36.0 °F 31.1 °F 28.9 °F 76% 29.75 in 10.0 mi SSW 5.8 mph - N/A   Clear
2:52 AM 39.0 °F 33.4 °F 30.9 °F 73% 29.76 in 10.0 mi SSW 8.1 mph - N/A   Clear
3:52 AM 37.9 °F 32.1 °F 30.9 °F 76% 29.75 in 10.0 mi SSW 8.1 mph - N/A   Clear
4:52 AM 37.0 °F 31.6 °F 30.0 °F 76% 29.75 in 10.0 mi SSW 6.9 mph - N/A   Clear
5:52 AM 35.1 °F 28.6 °F 28.9 °F 78% 29.76 in 10.0 mi South 8.1 mph - N/A   Clear
6:52 AM 37.0 °F 31.0 °F 30.9 °F 79% 29.77 in 10.0 mi South 8.1 mph - N/A   Clear
7:52 AM 41.0 °F 35.2 °F 34.0 °F 76% 29.77 in 10.0 mi South 9.2 mph - N/A   Clear
8:52 AM 45.0 °F 39.7 °F 35.1 °F 68% 29.77 in 10.0 mi South 10.4 mph - N/A   Clear
10:52 AM 54.0 °F - 34.0 °F 47% 29.75 in 10.0 mi South 13.8 mph - N/A   Clear
11:52 AM 55.9 °F - 35.1 °F 45% 29.72 in 10.0 mi South 15.0 mph - N/A   Clear
12:52 PM 55.9 °F - 33.1 °F 42% 29.68 in 10.0 mi South 17.3 mph - N/A   Clear
1:52 PM 60.1 °F - 34.0 °F 38% 29.63 in 10.0 mi South 15.0 mph 21.9 mph N/A   Clear
2:52 PM 60.1 °F - 34.0 °F 38% 29.62 in 10.0 mi South 17.3 mph - N/A   Clear
3:52 PM 57.9 °F - 32.0 °F 37% 29.60 in 10.0 mi South 16.1 mph - N/A   Clear
4:52 PM 57.0 °F - 32.0 °F 39% 29.57 in 10.0 mi South 18.4 mph 27.6 mph N/A   Clear
5:52 PM 55.9 °F - 32.0 °F 40% 29.57 in 10.0 mi South 20.7 mph 26.5 mph N/A   Clear
6:52 PM 55.0 °F - 33.1 °F 43% 29.55 in 10.0 mi South 24.2 mph 31.1 mph N/A   Clear
7:52 PM 53.1 °F - 34.0 °F 48% 29.55 in 10.0 mi South 21.9 mph 29.9 mph N/A   Clear
8:52 PM 52.0 °F - 35.1 °F 53% 29.55 in 10.0 mi South 20.7 mph - N/A   Clear
9:52 PM 51.1 °F - 37.0 °F 59% 29.52 in 10.0 mi South 20.7 mph 27.6 mph N/A   Clear
10:52 PM 51.1 °F - 39.0 °F 63% 29.48 in 10.0 mi South 21.9 mph 33.4 mph N/A   Clear
11:52 PM 51.1 °F - 41.0 °F 68% 29.48 in 10.0 mi South 18.4 mph 26.5 mph N/A   Clear